Torna al catalogo

STARLINK-36625

AttivoComunicazioniSSO
NORAD 67668·PAYLOAD·🇺🇸 United States

Lanciato Feb 2, 2026 da Vandenberg Space Force Base

Loading…

Prossimi Passaggi (prossime 24 ore)

TLE

AggiornatoSource: CelesTrak SupGP

Epoca: Sep 14, 2026, 20:56 UTC

1 67668C 26022W   26257.87270833  .00010557  00000+0  32781-3 0  2573
2 67668  97.2839 289.5072 0001550  90.0865 283.4653 15.33423144    17

Traccia STARLINK-36625 in tempo reale con AllMySat

Download on the App Store